Location: Allos
(44.2333°N, 6.6333°E)
Time: 12:46:47
(UTC+00:00)

Cosmos 1461 - Pass Details

Date: 01 December 2020
Orbit: 501 x 664 km, 65.0° (Epoch: 26 January)

Event Time Altitude Azimuth Distance (km) Brightness Sun altitude
Rises 17:55:47 0° 193° (SSW) 2,868 6.8 -20.9°
Reaches altitude 10° 17:58:05 10° 186° (S) 1,992 5.8 -21.3°
Enters shadow 18:01:31 37° 144° (SE) 992 3.8 -21.9°
